SCP
0 0 0 0 0 0 0 0 0 0 0 0 0 0 0 -0 -0 -0 0 -0 -0 0 -0 0 0 0 0 0 0 0 0 0 0 0 0 0 0 -0 0 0 0 0 -0 -0
0 0 0 0 0 0 0 0 0 0 0 0 0 0 0 0 0 0 0 0 0 0 0 0 0 0 0 0 0 0 0 0 0 0 0 0 0 0 0 0 0 -0 0 0
0 0 0 -0 0 0 0 0 0 0 0 0 0 0 0 0 0 0 0 0 0 0 0 0 0 0 0 0 -0 0 0 0 0 0 0 0 0 0 0 0 -0 -0 -0 -0
0 0 0 0 0 0 0 0 0 0 0 0 0 0 0 0 0 0 0 0 0 0 0 0 0 0 0 0 0 0 0 0 0 0 0 0 0 0 0 0 -0 -0 -0 -0
0 0 0 0 0 0 0 0 0 0 -0 -0 -0 0 0 0 0 0 0 0 0 0 0 0 0 0 0 0 0 0 0 0 0 0 0 0 0 0 0 -0 -0 -0 -0 -0
0 0 0 0 0 0 0 -0 0 -0 -0 -0 -0 -0 0 0 0 0 0 0 0 0 0 0 0 0 0 0 0 0 0 0 0 0 0 -0 -0 -0 -0 -0 -0 0 0 0
0 0 0 0 0 -0 0 -0 -0 0 -0 0 -0 0 -0 -0 0 0 0 0 0 0 0 0 0 0 0 0 0 0 0 0 0 -0 -0 -0 -0 -0 -0 0 0 0 0 0
0 0 0 0 0 -0 -0 -0 0 -0 -0 -0 -0 0 0 0 0 0 0 0 0 0 0 0 0 0 0 0 0 0 0 0 -0 -0 -0 -0 0 0 0 0 0 0 0 0
-0 0 0 0 0 0 0 -0 0 -0 0 -0 0 0 0 0 0 0 0 0 0 0 0 0 0 0 0 0 0 0 0 0 0 0 0 0 0 0 0 0 0 0 0 0
0 0 0 0 0 0 0 0 -0 -0 -0 0 0 0 0 0 0 0 0 0 0 0 0 0 0 -0 -0 -0 -0 0 0 0 0 0 0 0 0 0 0 0 0 0 0 0
-0 -0 0 -0 -0 0 0 0 0 0 0 0 0 0 0 0 0 0 0 -0 -0 0 0 -0 -0 -0 0 0 0 0 0 0 0 0 0 0 0 0 0 0 0 0 0 0
-0 -0 0 0 -0 -0 -0 -0 -0 -0 0 0 0 0 0 0 0 0 0 0 -0 0 -0 -0 0 0 0 0 0 0 0 0 0 0 0 0 0 0 0 0 0 0 0 0
0 -0 0 -0 0 -0 -0 -0 -0 -0 -0 -0 0 -0 -0 -0 -0 -0 -0 -0 -0 -0 0 0 0 0 0 0 0 0 0 0 0 0 0 0 0 0 0 0 0 0 0 0
-0 0 -0 0 -0 0 0 -0 -0 -0 -0 -0 -0 -0 -0 -0 0 -0 -0 -0 0 0 0 0 0 0 0 0 0 0 0 0 0 0 0 0 0 0 0 0 0 0 0 0
-0 -0 0 0 -0 0 0 0 0 0 0 0 0 0 0 0 0 0 0 0 0 0 0 0 0 0 0 0 0 0 0 0 0 0 0 0 0 0 0 0 0 0 0 0
0 0 0 -0 -0 -0 -0 0 0 0 0 0 0 0 0 0 0 0 0 0 0 0 0 0 0 0 0 0 0 0 0 0 0 0 0 0 0 0 0 0 0 0 0 0
0 0 0 0 -0 -0 -0 -0 -0 -0 -0 -0 -0 0 0 0 0 0 0 0 0 0 0 0 0 0 0 0 0 0 0 0 0 0 0 0 0 0 0 0 0 0 0 0
0 0 0 0 -0 0 0 0 0 -0 -0 -0 0 0 0 0 0 0 0 0 0 0 0 0 0 0 0 0 0 0 0 0 0 0 0 0 0 0 0 0 0 0 0 0
-0 -0 0 0 0 0 0 0 0 0 0 0 0 -0 -0 0 0 0 0 0 0 0 0 0 0 0 0 0 0 0 0 0 0 0 0 0 0 0 0 0 0 0 0 0
0 0 0 0 0 0 0 0 0 0 0 0 0 0 0 0 0 0 0 0 0 0 0 0 0 0 0 0 0 0 0 0 0 0 0 0 0 0 0 0 0 0 0 0
0 0 0 0 0 0 0 0 0 0 0 0 0 0 0 0 0 0 0 0 0 0 0 0 0 0 0 0 0 0 0 0 0 0 0 0 0 0 0 0 0 0 0 0
0 0 0 0 0 0 0 0 0 0 0 0 0 0 0 0 0 0 0 0 0 0 0 0 0 0 0 0 0 0 0 0 0 0 0 0 0 0 0 0 0 0 0 0
0 0 0 0 0 0 0 0 0 0 0 0 0 0 0 0 0 0 0 0 0 0 0 0 0 0 0 0 0 0 0 0 0 0 0 0 0 0 0 0 0 0 0 0
0 0 0 0 0 0 0 0 0 0 0 0 0 0 0 0 0 0 0 0 0 0 0 0 0 0 0 0 0 0 0 0 0 0 0 0 0 0 0 0 0 0 0 0
0 0 0 0 0 0 0 0 0 0 0 0 0 0 0 0 0 0 0 0 0 0 0 0 0 0 0 0 0 0 0 0 0 0 0 0 0 0 0 0 0 0 0 0
0 0 0 0 0 0 0 0 0 0 0 0 0 0 0 0 0 0 0 0 0 0 0 0 0 0 0 0 0 0 0 0 0 0 0 0 0 0 0 0 0 0 0 0
0 0 0 0 0 0 0 0 0 0 0 0 0 0 0 0 0 0 0 0 0 0 0 0 0 0 0 0 0 0 0 0 0 0 0 0 0 0 0 0 0 0 0 0
Wind_Speed_500mb
15 12 3 5 10 8 8 7 5 11 7 8 13 19 24 24 18 22 28 33 38 43 46 50 59 64 70 77 77 74 81 91 94 105 104 99 95 91 87 83 80 77 74 71
11 14 10 8 13 4 5 7 9 7 12 6 7 10 16 17 18 22 28 32 39 46 53 61 67 73 76 81 83 89 91 89 91 98 93 91 88 85 81 78 74 70 69 66
9 13 13 11 11 5 6 6 10 3 8 2 6 8 10 16 23 32 36 40 43 48 57 62 66 68 72 68 68 77 81 85 84 84 83 82 77 71 70 70 66 64 62 58
7 11 10 12 7 6 10 10 9 5 12 6 3 7 10 13 22 29 35 41 45 48 51 52 53 58 61 66 72 75 76 77 77 77 76 72 68 66 63 59 57 56 53 51
2 1 12 18 9 10 10 10 15 11 4 4 13 4 6 14 19 28 33 35 40 42 45 45 47 53 60 67 70 71 71 69 68 65 65 62 61 57 53 48 48 46 42 39
3 4 6 14 9 16 9 7 28 28 21 20 16 5 7 17 24 28 30 32 35 36 39 43 52 58 61 63 62 63 61 60 57 54 52 50 48 45 42 41 38 35 35 34
6 7 14 10 19 23 10 11 41 55 52 46 13 14 32 32 34 33 31 31 32 34 39 44 44 47 51 52 54 54 50 49 47 44 42 40 37 35 32 28 25 25 23 24
4 2 11 25 18 15 8 17 59 55 51 48 22 39 42 39 37 36 33 32 32 35 39 39 35 34 41 42 45 41 38 36 35 32 32 30 25 25 23 20 15 16 16 15
16 10 5 58 9 25 23 53 64 60 54 43 41 48 47 45 41 36 31 32 31 28 33 34 30 25 28 37 34 30 27 26 26 26 25 23 18 17 15 14 14 15 15 17
6 5 16 47 46 20 25 53 56 52 54 52 54 51 48 45 44 40 37 33 31 30 30 31 31 27 23 29 26 22 18 19 21 18 17 16 15 15 12 11 13 17 21 25
13 12 6 36 68 44 32 43 56 52 51 50 54 54 51 50 45 40 35 31 29 27 28 28 28 26 22 22 21 18 14 13 11 9 8 6 5 5 8 14 19 23 27 30
13 14 6 5 54 67 50 55 57 59 58 55 55 56 54 50 46 43 39 36 34 32 30 28 27 25 22 20 20 16 11 9 8 7 5 3 7 14 18 21 25 28 32 35
7 5 26 12 12 69 61 62 57 55 53 58 57 53 51 50 45 39 37 36 36 32 32 33 31 29 27 23 20 18 14 11 10 6 1 7 11 16 21 26 31 34 35 38
43 23 13 27 11 67 62 63 57 53 52 55 52 53 49 50 50 50 49 42 41 40 38 36 34 30 28 25 22 20 18 14 10 6 4 8 12 17 21 24 27 31 36 38
57 43 30 15 29 60 66 68 66 64 61 61 58 56 58 57 55 49 46 47 47 46 44 43 40 37 34 32 28 24 22 19 16 13 12 15 17 21 24 27 29 32 32 34
31 55 46 39 27 50 77 79 77 74 70 66 64 63 59 55 52 50 52 57 59 56 51 49 46 41 40 38 35 33 30 27 24 22 21 21 23 25 28 31 33 35 39 42
24 47 54 54 52 54 83 84 83 79 78 77 73 66 65 62 59 60 62 62 58 53 49 49 41 47 47 45 43 39 38 36 31 30 28 28 28 32 33 34 36 37 40 45
42 46 30 47 56 54 68 82 83 81 81 75 72 70 70 72 72 69 69 66 64 61 62 57 52 55 55 53 50 49 48 45 42 38 39 38 37 38 37 38 40 41 42 44
54 54 39 37 38 49 56 68 80 80 76 76 76 77 74 71 69 68 69 70 70 72 69 65 63 66 66 62 60 58 57 56 53 51 49 46 45 42 43 43 43 44 47 50
26 35 59 51 42 45 49 53 65 75 75 75 76 79 78 75 73 73 73 76 71 67 67 63 68 68 69 67 68 67 66 65 63 60 57 55 53 49 47 48 48 48 49 53
22 27 33 43 60 46 41 47 50 59 69 76 79 81 78 75 76 75 78 81 73 73 69 66 69 72 72 73 75 74 73 72 71 68 65 62 58 55 52 51 53 52 51 57
12 18 23 33 45 55 41 40 45 47 51 61 72 78 80 81 79 80 80 80 74 73 73 73 72 74 74 76 79 80 80 79 77 74 72 70 66 60 53 52 55 56 55 59
6 10 15 23 36 46 45 33 34 40 41 41 52 66 76 78 76 80 83 78 79 80 78 76 73 73 78 80 81 85 85 85 83 80 78 74 70 64 56 58 61 57 60 57
8 5 6 14 28 32 35 35 26 26 30 34 36 42 53 65 71 74 74 74 72 73 77 76 76 78 80 78 82 87 88 87 86 85 83 77 72 67 59 66 64 60 57 52
21 15 10 16 17 21 26 28 25 22 22 27 32 34 38 44 53 55 57 61 63 65 67 67 67 67 71 74 77 79 82 84 85 86 84 79 73 67 61 70 63 56 52 49
22 21 18 16 12 10 16 22 26 29 29 28 27 28 30 34 40 44 46 48 52 56 58 59 62 63 67 67 66 69 72 77 80 81 77 72 67 63 63 70 56 50 49 46
16 15 11 9 7 5 7 9 12 19 23 27 29 34 35 35 36 38 40 42 45 45 46 48 51 53 56 57 58 61 63 65 68 67 64 63 61 60 64 59 47 46 44 41
Wind_Direction_500mb
273 128 261 245 277 349 112 222 201 290 270 268 302 317 327 335 360 19 37 58 66 75 84 90 94 97 100 102 108 111 110 106 104 108 109 110 111 112 112 111 109 107 106 102
293 105 132 280 284 180 213 181 271 284 286 185 287 341 342 1 35 38 48 70 78 86 90 91 95 99 105 108 111 110 109 113 113 110 110 110 112 112 110 107 107 108 106 104
269 310 131 348 239 200 270 207 163 24 239 207 310 320 358 23 51 61 68 74 81 87 95 99 101 106 111 115 117 115 115 112 109 109 110 109 107 110 109 107 106 101 97 94
271 343 22 236 269 168 168 239 209 279 265 232 230 47 47 63 71 70 70 75 83 92 99 102 108 111 115 116 114 112 110 109 110 107 104 104 105 103 102 101 99 96 95 92
30 248 285 135 245 172 153 277 191 198 229 200 188 82 67 114 94 83 77 80 93 105 113 118 119 119 119 118 116 113 113 110 105 103 103 102 99 97 96 95 91 89 85 83
320 92 187 235 223 194 136 332 181 186 182 178 170 56 247 157 129 112 105 108 114 115 119 124 126 125 123 119 116 109 105 102 101 100 100 98 95 96 93 85 84 83 77 72
221 259 286 228 156 156 81 233 173 188 180 174 185 194 156 153 140 126 124 125 123 121 122 121 124 124 119 114 105 101 99 97 96 94 91 90 90 88 82 82 80 79 72 65
159 275 310 155 128 167 218 154 173 185 192 190 179 163 160 156 149 143 142 135 131 132 127 124 123 123 114 108 102 103 101 99 98 98 94 89 86 86 84 78 71 65 56 46
182 219 248 185 205 163 171 168 178 182 184 187 178 171 167 161 159 155 151 144 139 140 132 128 127 127 121 110 108 109 112 112 107 96 90 91 93 92 85 77 61 49 35 22
48 281 221 207 211 205 187 189 182 185 182 183 180 176 172 171 169 166 161 159 153 151 148 144 143 144 138 122 122 120 117 113 108 104 100 92 74 64 53 49 38 30 24 15
265 260 218 230 218 215 200 183 189 190 193 187 185 182 181 178 177 174 171 168 165 164 162 160 159 157 151 144 139 130 125 112 102 100 95 85 69 45 26 19 17 10 5 359
218 207 197 219 215 197 201 193 188 190 189 192 192 188 185 185 182 181 180 179 178 176 176 178 176 173 175 170 158 147 156 158 160 159 156 89 35 22 17 7 359 355 350 348
258 159 219 260 211 194 194 194 196 195 198 189 189 197 192 189 189 189 192 193 191 188 188 190 192 189 190 189 182 170 174 194 187 179 69 29 19 7 359 351 349 346 344 340
238 255 258 245 248 190 196 192 196 198 199 198 198 193 200 197 195 197 200 197 196 197 199 199 201 202 203 207 203 197 196 203 218 237 293 330 343 342 337 335 331 330 328 328
228 236 230 269 227 197 194 195 196 199 200 201 202 204 200 203 206 207 201 201 203 205 206 208 208 209 214 216 216 217 219 224 234 256 280 295 306 314 316 315 316 318 320 322
232 221 231 236 244 206 196 197 200 200 203 205 207 209 211 213 214 211 208 209 210 212 211 214 215 213 218 222 223 227 229 233 243 256 267 279 291 298 301 304 308 313 316 320
232 215 216 226 225 214 207 206 206 204 203 205 208 208 210 213 215 215 216 219 222 223 225 228 225 222 226 228 230 233 236 239 245 253 261 269 276 283 290 298 305 311 314 319
248 249 257 247 235 227 218 214 213 212 212 211 208 209 212 215 217 217 218 221 224 225 225 225 224 228 232 234 236 237 241 244 247 251 255 260 267 277 285 292 300 307 311 314
235 234 241 242 254 245 241 230 221 219 216 216 214 214 218 221 223 224 224 225 228 231 229 226 225 228 233 234 237 239 243 246 248 252 257 260 265 273 281 289 295 301 308 311
251 237 231 229 235 245 241 242 236 230 225 221 220 221 223 225 226 228 228 231 238 245 243 236 234 237 241 239 240 242 244 247 250 252 255 258 264 270 278 284 289 295 302 307
257 243 237 231 230 237 235 231 237 237 234 229 227 228 230 231 231 232 232 236 241 242 244 243 241 244 244 245 246 247 248 249 251 253 256 260 264 267 272 280 288 292 297 304
269 256 240 234 234 224 226 229 232 233 236 235 233 232 234 236 237 238 242 246 251 249 249 249 247 247 247 247 248 251 251 252 254 255 257 259 261 265 269 275 283 288 290 298
284 263 264 252 227 217 220 226 228 230 234 237 237 237 239 242 243 243 246 248 250 253 254 254 254 252 253 251 250 252 253 254 255 257 258 260 262 264 265 272 277 282 285 295
8 310 258 208 199 209 219 223 230 232 232 233 237 238 241 244 248 249 251 256 258 258 260 260 261 260 258 256 253 252 254 256 256 257 257 258 260 261 260 269 275 279 284 290
59 65 107 159 183 205 213 210 218 217 222 229 234 237 240 243 249 254 254 256 259 260 260 261 261 259 257 255 254 254 255 256 257 257 257 258 259 260 259 267 275 281 281 286
89 98 106 117 136 182 215 220 229 235 234 235 236 238 242 245 248 252 254 255 256 259 261 261 260 258 257 256 255 255 254 254 255 256 257 257 257 255 254 263 273 278 277 284
89 98 102 107 125 174 209 214 215 234 238 241 244 248 250 249 249 251 254 256 257 255 256 260 260 259 258 257 254 254 254 255 255 255 254 251 249 248 250 262 267 268 274 282
Wind_Speed_850mb
15 12 3 5 10 8 8 7 5 11 7 8 13 19 24 24 18 22 28 33 38 43 46 50 59 64 70 77 77 74 81 91 94 105 104 99 95 91 87 83 80 77 74 71
11 14 10 8 13 4 5 7 9 7 12 6 7 10 16 17 18 22 28 32 39 46 53 61 67 73 76 81 83 89 91 89 91 98 93 91 88 85 81 78 74 70 69 66
9 13 13 11 11 5 6 6 10 3 8 2 6 8 10 16 23 32 36 40 43 48 57 62 66 68 72 68 68 77 81 85 84 84 83 82 77 71 70 70 66 64 62 58
7 11 10 12 7 6 10 10 9 5 12 6 3 7 10 13 22 29 35 41 45 48 51 52 53 58 61 66 72 75 76 77 77 77 76 72 68 66 63 59 57 56 53 51
2 1 12 18 9 10 10 10 15 11 4 4 13 4 6 14 19 28 33 35 40 42 45 45 47 53 60 67 70 71 71 69 68 65 65 62 61 57 53 48 48 46 42 39
3 4 6 14 9 16 9 7 28 28 21 20 16 5 7 17 24 28 30 32 35 36 39 43 52 58 61 63 62 63 61 60 57 54 52 50 48 45 42 41 38 35 35 34
6 7 14 10 19 23 10 11 41 55 52 46 13 14 32 32 34 33 31 31 32 34 39 44 44 47 51 52 54 54 50 49 47 44 42 40 37 35 32 28 25 25 23 24
4 2 11 25 18 15 8 17 59 55 51 48 22 39 42 39 37 36 33 32 32 35 39 39 35 34 41 42 45 41 38 36 35 32 32 30 25 25 23 20 15 16 16 15
16 10 5 58 9 25 23 53 64 60 54 43 41 48 47 45 41 36 31 32 31 28 33 34 30 25 28 37 34 30 27 26 26 26 25 23 18 17 15 14 14 15 15 17
6 5 16 47 46 20 25 53 56 52 54 52 54 51 48 45 44 40 37 33 31 30 30 31 31 27 23 29 26 22 18 19 21 18 17 16 15 15 12 11 13 17 21 25
13 12 6 36 68 44 32 43 56 52 51 50 54 54 51 50 45 40 35 31 29 27 28 28 28 26 22 22 21 18 14 13 11 9 8 6 5 5 8 14 19 23 27 30
13 14 6 5 54 67 50 55 57 59 58 55 55 56 54 50 46 43 39 36 34 32 30 28 27 25 22 20 20 16 11 9 8 7 5 3 7 14 18 21 25 28 32 35
7 5 26 12 12 69 61 62 57 55 53 58 57 53 51 50 45 39 37 36 36 32 32 33 31 29 27 23 20 18 14 11 10 6 1 7 11 16 21 26 31 34 35 38
43 23 13 27 11 67 62 63 57 53 52 55 52 53 49 50 50 50 49 42 41 40 38 36 34 30 28 25 22 20 18 14 10 6 4 8 12 17 21 24 27 31 36 38
57 43 30 15 29 60 66 68 66 64 61 61 58 56 58 57 55 49 46 47 47 46 44 43 40 37 34 32 28 24 22 19 16 13 12 15 17 21 24 27 29 32 32 34
31 55 46 39 27 50 77 79 77 74 70 66 64 63 59 55 52 50 52 57 59 56 51 49 46 41 40 38 35 33 30 27 24 22 21 21 23 25 28 31 33 35 39 42
24 47 54 54 52 54 83 84 83 79 78 77 73 66 65 62 59 60 62 62 58 53 49 49 41 47 47 45 43 39 38 36 31 30 28 28 28 32 33 34 36 37 40 45
42 46 30 47 56 54 68 82 83 81 81 75 72 70 70 72 72 69 69 66 64 61 62 57 52 55 55 53 50 49 48 45 42 38 39 38 37 38 37 38 40 41 42 44
54 54 39 37 38 49 56 68 80 80 76 76 76 77 74 71 69 68 69 70 70 72 69 65 63 66 66 62 60 58 57 56 53 51 49 46 45 42 43 43 43 44 47 50
26 35 59 51 42 45 49 53 65 75 75 75 76 79 78 75 73 73 73 76 71 67 67 63 68 68 69 67 68 67 66 65 63 60 57 55 53 49 47 48 48 48 49 53
22 27 33 43 60 46 41 47 50 59 69 76 79 81 78 75 76 75 78 81 73 73 69 66 69 72 72 73 75 74 73 72 71 68 65 62 58 55 52 51 53 52 51 57
12 18 23 33 45 55 41 40 45 47 51 61 72 78 80 81 79 80 80 80 74 73 73 73 72 74 74 76 79 80 80 79 77 74 72 70 66 60 53 52 55 56 55 59
6 10 15 23 36 46 45 33 34 40 41 41 52 66 76 78 76 80 83 78 79 80 78 76 73 73 78 80 81 85 85 85 83 80 78 74 70 64 56 58 61 57 60 57
8 5 6 14 28 32 35 35 26 26 30 34 36 42 53 65 71 74 74 74 72 73 77 76 76 78 80 78 82 87 88 87 86 85 83 77 72 67 59 66 64 60 57 52
21 15 10 16 17 21 26 28 25 22 22 27 32 34 38 44 53 55 57 61 63 65 67 67 67 67 71 74 77 79 82 84 85 86 84 79 73 67 61 70 63 56 52 49
22 21 18 16 12 10 16 22 26 29 29 28 27 28 30 34 40 44 46 48 52 56 58 59 62 63 67 67 66 69 72 77 80 81 77 72 67 63 63 70 56 50 49 46
16 15 11 9 7 5 7 9 12 19 23 27 29 34 35 35 36 38 40 42 45 45 46 48 51 53 56 57 58 61 63 65 68 67 64 63 61 60 64 59 47 46 44 41
Wind_Direction_850mb
273 128 261 245 277 349 112 222 201 290 270 268 302 317 327 335 360 19 37 58 66 75 84 90 94 97 100 102 108 111 110 106 104 108 109 110 111 112 112 111 109 107 106 102
293 105 132 280 284 180 213 181 271 284 286 185 287 341 342 1 35 38 48 70 78 86 90 91 95 99 105 108 111 110 109 113 113 110 110 110 112 112 110 107 107 108 106 104
269 310 131 348 239 200 270 207 163 24 239 207 310 320 358 23 51 61 68 74 81 87 95 99 101 106 111 115 117 115 115 112 109 109 110 109 107 110 109 107 106 101 97 94
271 343 22 236 269 168 168 239 209 279 265 232 230 47 47 63 71 70 70 75 83 92 99 102 108 111 115 116 114 112 110 109 110 107 104 104 105 103 102 101 99 96 95 92
30 248 285 135 245 172 153 277 191 198 229 200 188 82 67 114 94 83 77 80 93 105 113 118 119 119 119 118 116 113 113 110 105 103 103 102 99 97 96 95 91 89 85 83
320 92 187 235 223 194 136 332 181 186 182 178 170 56 247 157 129 112 105 108 114 115 119 124 126 125 123 119 116 109 105 102 101 100 100 98 95 96 93 85 84 83 77 72
221 259 286 228 156 156 81 233 173 188 180 174 185 194 156 153 140 126 124 125 123 121 122 121 124 124 119 114 105 101 99 97 96 94 91 90 90 88 82 82 80 79 72 65
159 275 310 155 128 167 218 154 173 185 192 190 179 163 160 156 149 143 142 135 131 132 127 124 123 123 114 108 102 103 101 99 98 98 94 89 86 86 84 78 71 65 56 46
182 219 248 185 205 163 171 168 178 182 184 187 178 171 167 161 159 155 151 144 139 140 132 128 127 127 121 110 108 109 112 112 107 96 90 91 93 92 85 77 61 49 35 22
48 281 221 207 211 205 187 189 182 185 182 183 180 176 172 171 169 166 161 159 153 151 148 144 143 144 138 122 122 120 117 113 108 104 100 92 74 64 53 49 38 30 24 15
265 260 218 230 218 215 200 183 189 190 193 187 185 182 181 178 177 174 171 168 165 164 162 160 159 157 151 144 139 130 125 112 102 100 95 85 69 45 26 19 17 10 5 359
218 207 197 219 215 197 201 193 188 190 189 192 192 188 185 185 182 181 180 179 178 176 176 178 176 173 175 170 158 147 156 158 160 159 156 89 35 22 17 7 359 355 350 348
258 159 219 260 211 194 194 194 196 195 198 189 189 197 192 189 189 189 192 193 191 188 188 190 192 189 190 189 182 170 174 194 187 179 69 29 19 7 359 351 349 346 344 340
238 255 258 245 248 190 196 192 196 198 199 198 198 193 200 197 195 197 200 197 196 197 199 199 201 202 203 207 203 197 196 203 218 237 293 330 343 342 337 335 331 330 328 328
228 236 230 269 227 197 194 195 196 199 200 201 202 204 200 203 206 207 201 201 203 205 206 208 208 209 214 216 216 217 219 224 234 256 280 295 306 314 316 315 316 318 320 322
232 221 231 236 244 206 196 197 200 200 203 205 207 209 211 213 214 211 208 209 210 212 211 214 215 213 218 222 223 227 229 233 243 256 267 279 291 298 301 304 308 313 316 320
232 215 216 226 225 214 207 206 206 204 203 205 208 208 210 213 215 215 216 219 222 223 225 228 225 222 226 228 230 233 236 239 245 253 261 269 276 283 290 298 305 311 314 319
248 249 257 247 235 227 218 214 213 212 212 211 208 209 212 215 217 217 218 221 224 225 225 225 224 228 232 234 236 237 241 244 247 251 255 260 267 277 285 292 300 307 311 314
235 234 241 242 254 245 241 230 221 219 216 216 214 214 218 221 223 224 224 225 228 231 229 226 225 228 233 234 237 239 243 246 248 252 257 260 265 273 281 289 295 301 308 311
251 237 231 229 235 245 241 242 236 230 225 221 220 221 223 225 226 228 228 231 238 245 243 236 234 237 241 239 240 242 244 247 250 252 255 258 264 270 278 284 289 295 302 307
257 243 237 231 230 237 235 231 237 237 234 229 227 228 230 231 231 232 232 236 241 242 244 243 241 244 244 245 246 247 248 249 251 253 256 260 264 267 272 280 288 292 297 304
269 256 240 234 234 224 226 229 232 233 236 235 233 232 234 236 237 238 242 246 251 249 249 249 247 247 247 247 248 251 251 252 254 255 257 259 261 265 269 275 283 288 290 298
284 263 264 252 227 217 220 226 228 230 234 237 237 237 239 242 243 243 246 248 250 253 254 254 254 252 253 251 250 252 253 254 255 257 258 260 262 264 265 272 277 282 285 295
8 310 258 208 199 209 219 223 230 232 232 233 237 238 241 244 248 249 251 256 258 258 260 260 261 260 258 256 253 252 254 256 256 257 257 258 260 261 260 269 275 279 284 290
59 65 107 159 183 205 213 210 218 217 222 229 234 237 240 243 249 254 254 256 259 260 260 261 261 259 257 255 254 254 255 256 257 257 257 258 259 260 259 267 275 281 281 286
89 98 106 117 136 182 215 220 229 235 234 235 236 238 242 245 248 252 254 255 256 259 261 261 260 258 257 256 255 255 254 254 255 256 257 257 257 255 254 263 273 278 277 284
89 98 102 107 125 174 209 214 215 234 238 241 244 248 250 249 249 251 254 256 257 255 256 260 260 259 258 257 254 254 254 255 255 255 254 251 249 248 250 262 267 268 274 282